Starlink 3898

operational
NORAD ID: 52458 Int'l Des: 2022-049 Owner: SPXS Country: US Constellation: starlink
LEOCIRCULAR

Starlink 3898について

説明を読み込み中...

リアルタイム位置

3D地球を読み込み中...

次回通過

高度履歴

Altitude vs Time

uPlot chart will show altitude changes over time

軌道要素

1 52458U 22049H 25352.54671438 -.00000101 00000-0 11762-4 0 9990
2 52458 53.2181 73.3886 0001279 93.6076 266.5062 15.08841785199868
Epoch: Dec 18, 2025 • Age: 12 hours

現在のステータス

高度 544.2 km
速度 7.59 km/s
衛星直下点 -15.77°S, 158.41°E
打ち上げ日 May 6, 2022
運用期間 3.6 years
タイプ internet

技術仕様

分類 Payload
質量 297.00 kg
乾燥質量 220.00 kg
総質量 297.00 kg
長さ 0.20 m
直径 2.80 m
スパン 9.00 m
形状 Box + pan
製造者 SPXS
バスタイプ Starlink
フェーズステータス In Orbit
所有者/国 SPXS/US

大規模コンステレーション

Loading constellations...